Weather in Shumny

Russia / Khabarovsk Krai     47°16′42″N   134°59′01″E
temp.,
°C
wind,
m/s
gust,
m/s
humid.,
%
clouds,
%
prec.,
mm/h
press.,
hPa
HPBL,
m
6 march, sat
sat601:00−25wsw399312 0.0 1028391
04:00−27ssw249714 0.0 103078
07:00−27ssw249717 0.0 103384
10:00−22sw368833 0.0 1033462
13:00−17wsw367986 0.0 1032815
16:00−16wsw377993 0.1 1031807
19:00−19sw239493 0.0 103166
22:00−19sw389449 0.0 1032210
7 march, sun
sun701:00−20ssw37950 0.0 1031126
04:00−21ssw35988 0.0 1031116
07:00−22ssw359819 0.0 1030101
10:00−17ssw478859 0.0 1029272
13:00−11ssw4677100 0.0 1027710
16:00−10sw3582100 0.0 1025728
19:00−12ssw2393100 0.1 102483
22:00−14ssw2296100 0.1 102532
8 march, mon
mon801:00−14sw229699 0.1 102437
04:00−16sw239669 0.1 102543
07:00−18sw239612 0.0 102753
10:00−12ssw378613 0.0 1028353
13:00−7wsw367415 0.0 1027761
16:00−5sw367615 0.0 1026784
19:00−9ssw369217 0.0 1026131
22:00−11ssw489420 0.0 1026220
9 march, tue
tue901:00−12s4109417 0.0 1023248
04:00−12s4119056 0.0 1021249
07:00−11s41181100 0.0 1017287
10:00−6s6147774 0.0 1014529
13:00−1ssw613840 0.0 1010857
16:000sw5108649 0.4 10081120
19:00−2wnw3997100 1.2 1008644
22:00−4w2597100 2.8 1010153
10 march, wed
wed1001:00−7nw289699 1.1 1011249
04:00−8nw4109598 1.6 1014506
07:00−10nw2596100 0.4 1019133
10:00−6nw378683 0.4 1023523
13:00−3wnw347620 0.0 1023873
16:00−3wnw357425 0.1 1023862
19:00−8wsw22920 0.0 102522
22:00−10sw229224 0.0 102732